Home > Weather > Guangzhou > Past weeks

Flag for China Weather for the Past 2 Weeks in Guangzhou, Guangdong, China

Now
73 °F

Passing clouds.


Feels Like: 77 °F
Forecast: 58 / 66 °F
Wind: 3 mph from South

Location: Canton Airport

Current Time: Feb 9, 2016 at 3:57:22 PM

Latest Report: Feb 9, 2016 at 3:30 PM


Visibility: N/A

Pressure: 30.07 "Hg

Humidity: 33%

Dew point: 43 °F

Location of GuangzhouLocation

Historic Weather in Guangzhou — Graph

°F

Guangzhou Temperature Yesterday

Maximum temperature yesterday: 73 °F (at 3:30 PM)
Minimum temperature yesterday: 43 °F (at 5:30 AM)
Average temperature yesterday: 56 °F

High & Low Weather Summary for the Past Weeks

 TemperatureHumidityPressure
High73 °F (Feb 8, 3:30 PM)100% (Jan 27, 1:00 AM)30.48 "Hg (Jan 27, 1:00 AM)
Low41 °F (Jan 26, 3:00 AM)16% (Feb 7, 12:30 PM)29.98 "Hg (Jan 28, 2:30 PM)
Average53 °F71%30.23 "Hg
* Reported Jan 25 2:00 PM — Feb 9 2:30 PM, Guangzhou, Weather by CustomWeather, © 2016

Note: Actual official high and low records may vary slightly from our data, if they occured in-between our weather recording intervals... More about our weather records

Advertising

Guangzhou Weather History for the Previous 24 Hours

 ConditionsComfort  
Time TempWeatherWind HumidityBarometerVisibility
2:30 PM
Tue, Feb 9
73 °FSunny.3 mph29%30.09 "Hg10 mi
2:00 PM72 °FSunny.1 mph29%30.09 "Hg10 mi
1:30 PM72 °FSunny.1 mph29%30.12 "Hg10 mi
1:00 PM72 °FSunny.1 mph29%30.15 "Hg10 mi
12:30 PM68 °FSunny.1 mph30%30.18 "Hg10 mi
11:30 AM64 °FClear.1 mph40%30.21 "Hg6 mi
11:00 AM63 °FClear.1 mph42%30.21 "Hg6 mi
10:30 AM61 °FClear.1 mph45%30.24 "Hg5 mi
10:00 AM57 °FClear.1 mph55%30.24 "Hg5 mi
9:30 AM54 °FClear.1 mph63%30.24 "Hg5 mi
9:00 AM52 °FClear.1 mph67%30.21 "Hg5 mi
8:30 AM48 °FClear.3 mph76%30.21 "Hg4 mi
8:00 AM46 °FClear.1 mph82%30.21 "Hg4 mi
7:30 AM45 °FClear.1 mph81%30.21 "Hg5 mi
7:00 AM45 °FClear.1 mph81%30.18 "Hg10 mi
6:00 AM46 °FClear.3 mph76%30.18 "Hg10 mi
5:30 AM46 °FClear.1 mph82%30.15 "Hg10 mi
5:00 AM46 °FClear.No wind82%30.15 "Hg10 mi
4:30 AM46 °FClear.No wind82%30.15 "Hg10 mi
4:00 AM46 °FClear.3 mph76%30.15 "Hg10 mi
3:30 AM46 °FClear.3 mph82%30.15 "Hg10 mi
3:00 AM48 °FClear.3 mph71%30.18 "Hg10 mi
2:30 AM48 °FClear.1 mph71%30.18 "Hg10 mi
2:00 AM48 °FPassing clouds.3 mph76%30.18 "HgN/A
1:30 AM48 °FClear.1 mph76%30.18 "Hg10 mi
1:00 AM50 °FClear.1 mph71%30.18 "Hg10 mi
12:30 AM52 °FClear.1 mph67%30.18 "Hg10 mi
12:00 AM52 °FClear.1 mph72%30.18 "Hg10 mi
11:30 PM
Mon, Feb 8
52 °FClear.1 mph77%30.18 "Hg6 mi
11:00 PM54 °FClear.1 mph67%30.18 "Hg5 mi
10:30 PM54 °FClear.No wind67%30.18 "Hg5 mi
10:00 PM55 °FClear.No wind59%30.18 "Hg5 mi
9:30 PM57 °FClear.1 mph59%30.18 "Hg10 mi
9:00 PM59 °FClear.1 mph48%30.18 "Hg10 mi
8:30 PM57 °FClear.1 mph51%30.18 "Hg10 mi
8:00 PM59 °FClear.1 mph48%30.15 "Hg10 mi
7:30 PM63 °FPassing clouds.3 mph34%30.15 "HgN/A
7:00 PM64 °FPassing clouds.3 mph30%30.15 "HgN/A
6:30 PM64 °FPassing clouds.3 mph30%30.15 "HgN/A
6:00 PM66 °FPassing clouds.3 mph26%30.15 "HgN/A
5:30 PM70 °FPassing clouds.3 mph21%30.15 "HgN/A
5:00 PM72 °FSunny.1 mph19%30.15 "Hg10 mi
4:30 PM72 °FSunny.1 mph19%30.12 "Hg10 mi
4:00 PM72 °FPassing clouds.6 mph17%30.12 "HgN/A
3:30 PM73 °FSunny.3 mph17%30.15 "Hg10 mi
3:00 PM72 °FSunny.1 mph17%30.15 "Hg10 mi
Weather by CustomWeather, © 2016

See weather overviewHow to use our weather pages